Weather History for St. John's, NL

Change the Weather History Date:

Saturday, February 22, 2014

  Actual Average Record
Temperature  
Mean Temperature 28 °F -  
Max Temperature 33 °F 33 °F 37 °F (2001)
Min Temperature 23 °F 20 °F 3 °F (2001)
Degree Days  
Heating Degree Days 37    
Moisture  
Dew Point 25 °F    
Average Humidity 93    
Maximum Humidity 100    
Minimum Humidity 82    
Precipitation  
Precipitation 0.16 in 0.17 in - ()
Sea Level Pressure  
Sea Level Pressure 29.93 in    
Wind  
Wind Speed 13 mph ()    
Max Wind Speed 33 mph    
Max Gust Speed 40 mph    
Visibility 8.1 miles    
Events Fog , Rain , Snow    
Averages and records for this station are not official NWS values.
T = Trace of Precipitation, MM = Missing Value Source: Averaged Metar Reports

Daily Weather History Graph

Daily Weather History Graph

Search for Another Location

Airport:

Trip Planner

Search our weather history database for the weather conditions in past years. The results will help you decide how hot, cold, wet, or windy it might be!

Date:

Astronomy

Feb. 22, 2014 Rise Set
Actual Time 6:54 AM NST 5:35 PM NST
Civil Twilight 6:23 AM NST 6:06 PM NST
Nautical Twilight 5:47 AM NST 6:42 PM NST
Astronomical Twilight 5:12 AM NST 7:17 PM NST
Moon 12:53 AM NST (2/22) 10:30 AM NST (2/22)
Length of Visible Light 11h 43m
Length of Day
10h 40m
Waning Gibbous, 51% of the Moon is Illuminated
Feb 22
Waning Gibbous
Feb 22
Last Quarter
Mar 1
New
Mar 8
First Quarter
Mar 16
Full

Hourly Weather History & Observations

Time (NST) Temp. Windchill Dew Point Humidity Pressure Visibility Wind Dir Wind Speed Gust Speed Precip Events Conditions
12:30 AM 24.8 °F 13.4 °F 21.2 °F 86% 30.25 in 15.0 mi NW 12.7 mph - N/A   Overcast
1:30 AM 24.8 °F 14.0 °F 21.2 °F 86% 30.26 in 15.0 mi NW 11.5 mph - N/A   Overcast
2:30 AM 24 °F - 21 °F 82% 30.27 in 15 mi NW 6.9 mph - -   Overcast
2:30 AM 24.8 °F 16.9 °F 21.2 °F 86% 30.27 in 15.0 mi NW 6.9 mph - N/A   Overcast
3:30 AM 24.8 °F 19.1 °F 21.2 °F 86% 30.26 in 15.0 mi NNW 4.6 mph - N/A   Overcast
4:30 AM 24.8 °F 19.1 °F 21.2 °F 86% 30.26 in 15.0 mi NNE 4.6 mph - N/A   Overcast
5:30 AM 24.8 °F - 21.2 °F 86% 30.27 in 15.0 mi Calm Calm - N/A   Overcast
5:51 AM 23.0 °F - 21.2 °F 93% 30.27 in 15.0 mi Calm Calm - N/A   Overcast
6:30 AM 23.0 °F 17.0 °F 21.2 °F 93% 30.26 in 15.0 mi ESE 4.6 mph - N/A   Overcast
7:30 AM 23.0 °F 13.9 °F 21.2 °F 93% 30.25 in 15.0 mi South 8.1 mph - N/A   Overcast
8:30 AM 24 °F - 21 °F 84% 30.25 in 15 mi South 9.2 mph - -   Overcast
8:30 AM 24.8 °F 15.3 °F 21.2 °F 86% 30.25 in 15.0 mi South 9.2 mph - N/A   Overcast
9:30 AM 24.8 °F 14.6 °F 21.2 °F 86% 30.21 in 15.0 mi SSE 10.4 mph - N/A   Overcast
10:30 AM 24.8 °F 12.4 °F 21.2 °F 86% 30.17 in 15.0 mi SSE 15.0 mph - N/A   Overcast
10:56 AM 24.8 °F 13.4 °F 23.0 °F 93% 30.17 in 0.5 mi South 12.7 mph 20.7 mph N/A Snow Snow
11:30 AM 24.8 °F 12.9 °F 23.0 °F 93% 30.16 in 0.2 mi South 13.8 mph - N/A Snow Heavy Snow
11:52 AM 24.8 °F 12.4 °F 23.0 °F 93% 30.14 in 0.5 mi South 15.0 mph - N/A Snow Snow
12:30 PM 24.8 °F 10.3 °F 23.0 °F 93% 30.07 in 0.5 mi SSE 20.7 mph 27.6 mph N/A Snow Snow
1:03 PM 24.8 °F 9.6 °F 23.0 °F 93% 30.04 in 3.0 mi SSE 23.0 mph - N/A Snow Light Snow
1:30 PM 26.6 °F 11.1 °F 23.0 °F 86% 30.01 in 15.0 mi SSE 26.5 mph - N/A Snow Light Snow
1:50 PM 26.6 °F 12.7 °F 23.0 °F 86% 29.99 in 0.5 mi SSE 20.7 mph 29.9 mph N/A Snow Snow
2:09 PM 24.8 °F 8.4 °F 23.0 °F 93% 29.97 in 3.0 mi SSE 27.6 mph - N/A Snow Light Snow
2:30 PM 26 °F - 24 °F 88% 29.95 in 7 mi SSE 24.2 mph - - Snow Light Snow
2:30 PM 24.8 °F 9.3 °F 24.8 °F 100% 29.95 in 8.0 mi SSE 24.2 mph 31.1 mph N/A Snow Light Snow
2:57 PM 26.6 °F 11.7 °F 24.8 °F 93% 29.92 in 10.0 mi SSE 24.2 mph 32.2 mph N/A   Light Freezing Drizzle
3:16 PM 26.6 °F 11.1 °F 24.8 °F 93% 29.89 in 8.0 mi SSE 26.5 mph 34.5 mph N/A   Light Ice Pellets
3:30 PM 26.6 °F 11.7 °F 26.6 °F 100% 29.89 in 8.0 mi SSE 24.2 mph 32.2 mph N/A   Light Ice Pellets
3:58 PM 28.4 °F 13.0 °F 26.6 °F 93% 29.85 in 8.0 mi SSE 28.8 mph 38.0 mph N/A Rain Light Freezing Rain
4:30 PM 28.4 °F 13.3 °F 26.6 °F 93% 29.82 in 8.0 mi SSE 27.6 mph 39.1 mph N/A Rain Light Freezing Rain
5:03 PM 28.4 °F 12.3 °F 26.6 °F 93% 29.76 in 8.0 mi SSE 32.2 mph 39.1 mph N/A   Light Freezing Drizzle
5:30 PM 28.4 °F 13.3 °F 26.6 °F 93% 29.75 in 8.0 mi SSE 27.6 mph 39.1 mph N/A   Light Freezing Drizzle
6:30 PM 28.4 °F 13.8 °F 28.4 °F 100% 29.69 in 12.0 mi SSE 25.3 mph 35.7 mph N/A   Light Freezing Drizzle
6:52 PM 28.4 °F 13.8 °F 28.4 °F 100% 29.66 in 4.0 mi SSE 25.3 mph 32.2 mph N/A   Light Freezing Drizzle
7:16 PM 28.4 °F 14.7 °F 28.4 °F 100% 29.65 in 1.5 mi SSE 21.9 mph 27.6 mph N/A   Light Freezing Drizzle
7:30 PM 28.4 °F 15.1 °F 28.4 °F 100% 29.62 in 1.2 mi SSE 20.7 mph - N/A   Light Freezing Drizzle
7:39 PM 28.4 °F 15.8 °F 28.4 °F 100% 29.61 in 0.5 mi SSE 18.4 mph 26.5 mph N/A Fog Light Freezing Drizzle
8:30 PM 29 °F - 29 °F 100% 29.58 in 0 mi SSE 8.1 mph - - Rain Light Freezing Drizzle
8:30 PM 28.4 °F 20.4 °F 28.4 °F 100% 29.57 in 0.4 mi SSE 8.1 mph - N/A Fog Light Freezing Drizzle
8:58 PM 30.2 °F 23.4 °F 30.2 °F 100% 29.55 in 2.0 mi SSW 6.9 mph - N/A   Light Freezing Drizzle
9:12 PM 32.0 °F 24.2 °F 30.2 °F 93% 29.55 in 3.0 mi WSW 9.2 mph - N/A   Light Freezing Drizzle
9:30 PM 33.8 °F 21.9 °F 32.0 °F 93% 29.53 in 2.0 mi WSW 21.9 mph - N/A   Light Drizzle
9:55 PM 32.0 °F 19.2 °F 32.0 °F 100% 29.53 in 0.4 mi West 23.0 mph - N/A Fog Light Drizzle
10:30 PM 32.0 °F 17.9 °F 32.0 °F 100% 29.53 in 0.4 mi West 28.8 mph 36.8 mph N/A Fog Light Drizzle
11:03 PM 33.8 °F 19.6 °F 32.0 °F 93% 29.53 in 15.0 mi West 32.2 mph - N/A   Overcast
11:30 PM 33.8 °F 19.4 °F 32.0 °F 93% 29.55 in 15.0 mi WNW 33.4 mph 40.3 mph N/A   Mostly Cloudy